Weather History for Worland, WY

Change the Weather History Date:

Wednesday, March 6, 2013

  Actual Average Record
Temperature  
Mean Temperature 37 °F 33 °F  
Max Temperature 55 °F 47 °F 67 °F (2006)
Min Temperature 18 °F 19 °F -4 °F (1995)
Degree Days  
Heating Degree Days 28 32  
Month to date heating degree days 203 201  
Since 1 July heating degree days 5785 6202  
Cooling Degree Days 0 0  
Month to date cooling degree days 0 0  
Year to date cooling degree days 0 0  
Moisture  
Dew Point 23 °F    
Average Humidity 62    
Maximum Humidity 92    
Minimum Humidity 32    
Precipitation  
Precipitation 0.00 in 0.01 in 0.21 in (1983)
Month to date precipitation 0.00 0.07  
Year to date precipitation 0.39 0.49  
Sea Level Pressure  
Sea Level Pressure 29.90 in    
Wind  
Wind Speed 5 mph (South)    
Max Wind Speed 18 mph    
Max Gust Speed 21 mph    
Visibility 10 miles    
Events      
T = Trace of Precipitation, MM = Missing Value Source: NWS Daily Summary

Daily Weather History Graph

Daily Weather History Graph

Search for Another Location

Airport:

Trip Planner

Search our weather history database for the weather conditions in past years. The results will help you decide how hot, cold, wet, or windy it might be!

Date:

Astronomy

Mar. 06, 2013 Rise Set
Actual Time 6:39 AM MST 6:07 PM MST
Civil Twilight 6:10 AM MST 6:35 PM MST
Nautical Twilight 5:37 AM MST 7:09 PM MST
Astronomical Twilight 5:03 AM MST 7:42 PM MST
Moon 3:00 AM MST (3/6) 12:43 PM MST (3/6)
Length of Visible Light 12h 25m
Length of Day
11h 27m
Waning Crescent, 29% of the Moon is Illuminated
Mar 6
Waning Crescent
Mar 11
New
Mar 19
First Quarter
Mar 27
Full
Apr 2
Last Quarter

Hourly Weather History & Observations

Time (MST) Temp. Windchill Dew Point Humidity Pressure Visibility Wind Dir Wind Speed Gust Speed Precip Events Conditions
12:53 AM 21.0 °F 16.2 °F 18.0 °F 88% 30.11 in 10.0 mi SSE 3.5 mph - N/A   Clear
1:53 AM 23.0 °F 14.7 °F 18.0 °F 81% 30.09 in 10.0 mi South 6.9 mph - N/A   Clear
2:53 AM 21.9 °F 13.4 °F 19.0 °F 89% 30.07 in 10.0 mi South 6.9 mph - N/A   Clear
3:53 AM 19.9 °F - 17.1 °F 89% 30.07 in 10.0 mi Calm Calm - N/A   Clear
4:53 AM 19.9 °F - 17.1 °F 89% 30.06 in 10.0 mi Calm Calm - N/A   Clear
5:53 AM 19.0 °F 11.1 °F 17.1 °F 92% 30.07 in 10.0 mi SSW 5.8 mph - N/A   Clear
6:53 AM 19.9 °F 13.4 °F 16.0 °F 85% 30.06 in 10.0 mi SSW 4.6 mph - N/A   Clear
7:53 AM 23.0 °F 17.0 °F 19.0 °F 85% 30.06 in 10.0 mi SSW 4.6 mph - N/A   Clear
8:53 AM 27.0 °F - 19.9 °F 75% 30.01 in 10.0 mi Calm Calm - N/A   Clear
9:53 AM 28.9 °F - 21.0 °F 72% 29.99 in 10.0 mi Calm Calm - N/A   Clear
10:53 AM 34.0 °F - 25.0 °F 70% 29.93 in 10.0 mi Calm Calm - N/A   Clear
11:53 AM 39.9 °F - 24.1 °F 53% 29.88 in 10.0 mi Calm Calm - N/A   Clear
12:53 PM 44.1 °F - 26.1 °F 49% 29.83 in 10.0 mi Calm Calm - N/A   Clear
1:53 PM 48.9 °F - 28.0 °F 44% 29.75 in 10.0 mi Variable 3.5 mph - N/A   Clear
2:53 PM 54.0 °F - 25.0 °F 33% 29.72 in 10.0 mi SSW 10.4 mph - N/A   Clear
3:53 PM 52.0 °F - 26.1 °F 37% 29.72 in 10.0 mi SSW 12.7 mph - N/A   Clear
4:53 PM 51.1 °F - 28.9 °F 43% 29.72 in 10.0 mi SSW 8.1 mph - N/A   Clear
5:53 PM 45.0 °F 41.2 °F 27.0 °F 49% 29.74 in 10.0 mi SSE 6.9 mph - N/A   Clear
6:53 PM 37.9 °F 34.4 °F 27.0 °F 65% 29.78 in 10.0 mi SSE 4.6 mph - N/A   Clear
7:53 PM 36.0 °F 31.1 °F 27.0 °F 70% 29.78 in 10.0 mi SE 5.8 mph - N/A   Clear
8:53 PM 39.0 °F 31.8 °F 26.1 °F 60% 29.77 in 10.0 mi South 11.5 mph - N/A   Clear
9:53 PM 41.0 °F 34.3 °F 25.0 °F 53% 29.78 in 10.0 mi SSE 11.5 mph - N/A   Clear
10:53 PM 37.0 °F 32.4 °F 27.0 °F 67% 29.79 in 10.0 mi ESE 5.8 mph - N/A   Mostly Cloudy
11:53 PM 35.1 °F 31.0 °F 28.0 °F 76% 29.82 in 10.0 mi South 4.6 mph - N/A   Overcast